TimeEDT,TemperatureF,Dew PointF,Humidity,Sea Level PressureIn,VisibilityMPH,Wind Direction,Wind SpeedMPH,Gust SpeedMPH,PrecipitationIn,Events,Conditions,WindDirDegrees,DateUTC
12:53 AM,57.9,55.0,90,29.78,10.0,Calm,Calm,-,N/A,,Overcast,0,2013-05-12 04:53:00
1:53 AM,57.9,51.1,78,29.76,10.0,WNW,4.6,-,N/A,,Mostly Cloudy,290,2013-05-12 05:53:00
2:53 AM,57.0,50.0,77,29.76,10.0,Calm,Calm,-,N/A,,Mostly Cloudy,0,2013-05-12 06:53:00
3:53 AM,55.9,48.0,75,29.76,10.0,West,4.6,-,N/A,,Clear,270,2013-05-12 07:53:00
4:53 AM,54.0,44.1,69,29.77,10.0,West,5.8,-,N/A,,Clear,280,2013-05-12 08:53:00
5:53 AM,52.0,43.0,71,29.78,10.0,SW,5.8,-,N/A,,Clear,230,2013-05-12 09:53:00
6:53 AM,52.0,44.1,74,29.79,10.0,West,6.9,-,N/A,,Clear,270,2013-05-12 10:53:00
7:53 AM,55.0,42.1,62,29.81,10.0,WNW,15.0,21.9,N/A,,Clear,290,2013-05-12 11:53:00
8:53 AM,55.0,37.0,51,29.83,10.0,WNW,19.6,24.2,N/A,,Scattered Clouds,300,2013-05-12 12:53:00
9:53 AM,55.9,36.0,47,29.84,10.0,NW,18.4,24.2,0.01,,Clear,310,2013-05-12 13:53:00
10:53 AM,55.0,28.9,37,29.86,10.0,West,15.0,24.2,N/A,,Clear,280,2013-05-12 14:53:00
11:53 AM,55.9,28.0,34,29.85,10.0,WNW,16.1,21.9,N/A,,Clear,290,2013-05-12 15:53:00
12:53 PM,57.9,30.9,36,29.86,10.0,NW,11.5,-,N/A,,Clear,320,2013-05-12 16:53:00
1:53 PM,57.9,30.0,35,29.86,10.0,NW,12.7,25.3,N/A,,Clear,310,2013-05-12 17:53:00
2:53 PM,57.9,30.9,36,29.87,10.0,WNW,17.3,20.7,N/A,,Scattered Clouds,300,2013-05-12 18:53:00
3:53 PM,59.0,27.0,29,29.87,10.0,WNW,20.7,29.9,N/A,,Scattered Clouds,290,2013-05-12 19:53:00
4:53 PM,57.9,27.0,31,29.89,10.0,West,17.3,27.6,N/A,,Clear,280,2013-05-12 20:53:00
5:53 PM,57.0,25.0,29,29.89,10.0,West,11.5,21.9,N/A,,Partly Cloudy,280,2013-05-12 21:53:00
6:53 PM,55.9,25.0,30,29.91,10.0,West,13.8,27.6,N/A,,Clear,280,2013-05-12 22:53:00
7:53 PM,53.1,27.0,37,29.94,10.0,West,8.1,-,N/A,,Scattered Clouds,280,2013-05-12 23:53:00
8:53 PM,50.0,28.0,43,29.96,10.0,WNW,6.9,-,N/A,,Clear,290,2013-05-13 00:53:00
9:53 PM,48.0,26.1,42,29.99,10.0,West,3.5,-,N/A,,Clear,270,2013-05-13 01:53:00
10:53 PM,45.0,28.9,53,30.01,10.0,WNW,3.5,-,N/A,,Clear,290,2013-05-13 02:53:00
11:53 PM,46.0,27.0,47,30.02,10.0,West,5.8,-,N/A,,Clear,280,2013-05-13 03:53:00